FW4331 Weather Reports


Display with metric or nautical units.
time (UTC)temp
F
wind
direction
speed
MPH
gust
MPH
rain 1hr
in
rain 24hr
in
rain mn
in
humidity
%
barometer
mb
20260901091516 74 55 0.0 0.0 0.00 0.00 0.00 43 1015.2
20260901090014 74 55 0.0 0.0 0.00 0.00 0.00 42 1015.3
20260901084512 74 55 0.0 2.0 0.00 0.00 0.00 41 1015.4
20260901083010 74 66 0.0 0.0 0.00 0.00 0.00 41 1015.4
20260901081508 74 51 0.0 3.0 0.00 0.00 0.00 43 1015.4
20260901080005 74 88 0.0 0.0 0.00 0.00 0.00 45 1015.3
20260901074502 74 80 0.0 0.0 0.00 0.00 0.00 46 1015.4
20260901073100 74 80 0.0 0.0 0.00 0.00 0.00 46 1015.5
20260901071558 73 51 0.0 0.0 0.00 0.00 0.00 44 1015.7
20260901070057 74 51 0.0 0.0 0.00 0.00 0.00 42 1015.7
20260901064551 74 9 0.0 0.0 0.00 0.00 0.00 44 1015.8
20260901063106 75 6 0.0 0.0 0.00 0.00 0.00 43 1016.1
20260901061548 75 333 0.0 0.0 0.00 0.00 0.00 43 1016.0
20260901060044 75 333 0.0 0.0 0.00 0.00 0.00 43 1015.9
20260901054540 75 29 0.0 0.0 0.00 0.00 0.00 43 1016.1
20260901053050 75 72 0.0 0.0 0.00 0.00 0.00 42 1016.3
20260901051538 76 71 0.0 2.0 0.00 0.00 0.00 41 1016.2
20260901050033 75 88 0.0 0.0 0.00 0.00 0.00 44 1016.3
20260901044537 75 89 0.0 0.0 0.00 0.00 0.00 44 1016.3
20260901043028 75 88 0.0 0.0 0.00 0.00 0.00 46 1016.7
20260901041523 75 359 0.0 0.0 0.00 0.00 0.00 46 1016.7
20260901040020 75 329 0.0 0.0 0.00 0.00 0.00 46 1016.8
20260901034532 75 329 0.0 0.0 0.00 0.00 0.00 46 1016.9
20260901033016 75 329 0.0 0.0 0.00 0.00 0.00 45 1016.8
20260901031516 75 329 0.0 0.0 0.00 0.00 0.00 44 1016.8
20260901030013 75 329 0.0 0.0 0.00 0.00 0.00 44 1017.0
20260901024512 75 328 0.0 0.0 0.00 0.00 0.00 42 1016.9
20260901023009 75 328 0.0 0.0 0.00 0.00 0.00 40 1017.0
20260901021512 75 328 0.0 1.0 0.00 0.00 0.00 39 1016.9
20260901020008 75 328 0.0 0.0 0.00 0.00 0.00 45 1016.8
20260901014505 76 328 0.0 0.0 0.00 0.00 0.00 50 1016.7
20260901013003 76 328 0.0 0.0 0.00 0.00 0.00 52 1016.5
20260901011503 77 328 0.0 0.0 0.00 0.00 0.00 54 1016.5
20260901010059 77 329 0.0 0.0 0.00 0.00 0.00 57 1016.4
20260901004615 78 329 0.0 0.0 0.00 0.00 0.00 58 1016.3
20260901003056 79 328 0.0 0.0 0.00 0.00 0.00 60 1016.2
20260901001558 79 328 0.0 0.0 0.00 0.00 0.00 60 1016.2
20260831234549 79 328 0.0 0.0 0.00 0.00 0.00 60 1016.3
20260831233047 80 328 0.0 0.0 0.00 0.00 0.00 60 1016.2
20260831231546 81 328 0.0 1.0 0.00 0.00 0.00 59 1016.2
20260831230044 83 328 0.0 2.0 0.00 0.00 0.00 56 1016.2
20260831224539 83 337 1.0 3.0 0.00 0.00 0.00 54 1016.4
20260831223037 84 323 0.0 3.0 0.00 0.00 0.00 54 1016.6
20260831221538 83 182 0.0 0.0 0.00 0.00 0.00 55 1016.6
20260831220033 83 177 0.0 0.0 0.00 0.00 0.00 55 1016.7
20260831214535 84 177 0.0 2.0 0.00 0.00 0.00 53 1016.6
20260831213032 83 128 0.0 0.0 0.00 0.00 0.00 54 1016.6
20260831211528 83 128 0.0 0.0 0.00 0.00 0.00 56 1016.7
20260831210026 83 128 0.0 0.0 0.00 0.00 0.00 55 1016.9
20260831204524 84 127 0.0 0.0 0.00 0.00 0.00 55 1016.8
20260831203021 84 128 0.0 0.0 0.00 0.00 0.00 55 1016.7
20260831201520 84 131 0.0 2.0 0.00 0.00 0.00 53 1016.8
20260831200050 84 135 0.0 2.0 0.00 0.00 0.00 53 1016.9
20260831194515 85 131 0.0 1.0 0.00 0.00 0.00 52 1016.8
20260831193019 86 124 1.0 3.0 0.00 0.00 0.00 50 1017.0
20260831191510 86 145 0.0 3.0 0.00 0.00 0.00 51 1017.3
20260831190020 86 150 0.0 3.0 0.00 0.00 0.00 50 1017.4
20260831184506 87 329 0.0 4.0 0.00 0.00 0.00 50 1017.6
20260831183005 86 320 2.0 4.0 0.00 0.00 0.00 50 1017.5
20260831181503 85 181 2.0 4.0 0.00 0.00 0.00 51 1017.6
20260831180100 85 128 1.0 4.0 0.00 0.00 0.00 52 1017.5
20260831174621 85 138 0.0 4.0 0.00 0.00 0.00 51 1017.7
20260831173056 86 166 2.0 6.0 0.00 0.00 0.00 50 1017.8
20260831171553 86 129 1.0 4.0 0.00 0.00 0.00 49 1017.8
20260831170055 88 146 1.0 3.0 0.00 0.00 0.00 48 1017.8
20260831164553 87 69 1.0 6.0 0.00 0.00 0.00 46 1017.9
20260831163041 85 300 2.0 4.0 0.00 0.00 0.00 31 1018.3
20260831161538 85 234 2.0 6.0 0.00 0.00 0.00 32 1018.5
20260831160033 83 299 1.0 7.0 0.00 0.00 0.00 35 1018.5
20260831154531 82 165 0.0 6.0 0.00 0.00 0.00 37 1018.3
20260831153029 82 153 3.0 8.0 0.00 0.00 0.00 37 1018.2
20260831151527 82 264 3.0 8.0 0.00 0.00 0.00 36 1018.2
20260831150024 82 286 2.0 11.0 0.00 0.00 0.00 34 1018.2
20260831144517 82 143 0.0 5.0 0.00 0.00 0.00 37 1018.2
20260831143015 80 277 2.0 8.0 0.00 0.00 0.00 38 1018.3
20260831141511 79 287 2.0 7.0 0.00 0.00 0.00 39 1018.2
20260831140007 79 308 3.0 7.0 0.00 0.00 0.00 40 1018.2
20260831134516 78 129 1.0 8.0 0.00 0.00 0.00 41 1018.3
20260831133011 78 154 1.0 6.0 0.00 0.00 0.00 41 1018.2
20260831131501 78 241 3.0 10.0 0.00 0.00 0.00 40 1018.3
20260831130055 76 275 1.0 8.0 0.00 0.00 0.00 42 1018.2
20260831124551 76 210 1.0 10.0 0.00 0.00 0.00 42 1018.1
20260831123046 74 193 4.0 9.0 0.00 0.00 0.00 44 1018.2
20260831121545 73 217 2.0 6.0 0.00 0.00 0.00 45 1017.9
20260831120042 72 144 2.0 6.0 0.00 0.00 0.00 46 1017.9
20260831114535 72 146 1.0 5.0 0.00 0.00 0.00 46 1017.9
20260831113033 72 166 1.0 4.0 0.00 0.00 0.00 46 1017.7
20260831111529 0 0.0 0.0 0.00 0.00 0.00 1017.6
20260831110024 0 0.0 0.0 0.00 0.00 0.00 1017.4
20260831104529 0 0.0 0.0 0.00 0.00 0.00 1017.1
20260831103022 70 4 0.0 0.0 0.00 0.00 0.00 48 1017.1
20260831101516 69 273 0.0 0.0 0.00 0.00 0.00 47 1016.9
20260831100014 69 273 0.0 0.0 0.00 0.00 0.00 47 1017.1
20260831094520 70 359 0.0 0.0 0.00 0.00 0.00 47 1017.1
20260831093015 70 351 0.0 0.0 0.00 0.00 0.00 48 1017.1